Eveleth, MN

4:52 AM CDT on June 20, 2018 (GMT -0500)
Eveleth-Virginia Municipal

Weather History for KEVM - September, 2017

Change the Weather History Date:

Wednesday, September 13, 2017

  Actual Average Record
Temperature  
Mean Temperature 67 °F -  
Max Temperature 82 °F 66 °F 82 °F (2017)
Min Temperature 52 °F 44 °F 30 °F (2014)
Cooling Degree Days 2    
Growing Degree Days 17 (Base 50)    
Moisture  
Dew Point 58 °F    
Average Humidity 78    
Maximum Humidity 94    
Minimum Humidity 32    
Precipitation  
Precipitation 0.00 in - - ()
Sea Level Pressure  
Sea Level Pressure 29.73 in    
Wind  
Wind Speed 1 mph (SSW)    
Max Wind Speed 9 mph    
Max Gust Speed -    
Visibility 6 miles    
Events Fog    
Averages and records for this station are not official NWS values.
T = Trace of Precipitation, MM = Missing Value Source: NWS Daily Summary

Daily Weather History Graph

Daily Weather History Graph

Search for Another Location

Airport or City:

Astronomy

Sep. 13, 2017 Rise Set
Actual Time 6:45 AM CDT 7:25 PM CDT
Civil Twilight 6:14 AM CDT 7:56 PM CDT
Nautical Twilight 5:37 AM CDT 8:33 PM CDT
Astronomical Twilight 4:58 AM CDT 9:11 PM CDT
Moon No Moon Rise 2:59 PM CDT (9/13)
Length of Visible Light 13h 42m
Length of Day
12h 40m
Last Quarter, 45% of the Moon is Illuminated
Sep 13
Last Quarter
Sep 20
New
Sep 27
First Quarter
Oct 5
Full
Oct 12
Last Quarter

Hourly Weather History & Observations

Time (CDT) Temp. Heat Index Dew Point Humidity Pressure Visibility Wind Dir Wind Speed Gust Speed Precip Events Conditions
12:14 AM 55.2 °F - 52.5 °F 91% 29.81 in 10.0 mi Calm Calm - N/A   Clear
12:33 AM 55.0 °F - 52.3 °F 91% 29.81 in 7.0 mi Calm Calm - N/A   Clear
12:54 AM 54.9 °F - 52.3 °F 91% 29.81 in 5.0 mi Calm Calm - N/A   Clear
1:14 AM 53.8 °F - 51.1 °F 91% 29.80 in 2.0 mi Calm Calm - N/A   Clear
1:33 AM 54.1 °F - 51.4 °F 91% 29.80 in 1.5 mi Calm Calm - N/A   Mist
1:54 AM 54.3 °F - 51.6 °F 91% 29.79 in 10.0 mi Calm Calm - N/A   Clear
2:14 AM 52.7 °F - 50.0 °F 91% 29.79 in 4.0 mi Calm Calm - N/A   Clear
2:33 AM 52.7 °F - 50.0 °F 91% 29.78 in 5.0 mi Calm Calm - N/A   Clear
2:54 AM 52.7 °F - 50.0 °F 91% 29.78 in 0.8 mi Calm Calm - N/A   Mist
3:14 AM 52.7 °F - 50.0 °F 91% 29.77 in 2.5 mi Calm Calm - N/A   Mist
3:34 AM 52.7 °F - 50.0 °F 91% 29.76 in 0.5 mi Calm Calm - N/A Fog Fog
3:54 AM 52.7 °F - 50.0 °F 91% 29.76 in 0.8 mi Calm Calm - N/A   Overcast
4:13 AM 52.7 °F - 50.0 °F 91% 29.76 in 0.5 mi Calm Calm - N/A Fog Fog
4:34 AM 52.7 °F - 50.0 °F 91% 29.76 in 0.2 mi Calm Calm - N/A Fog Fog
4:54 AM 52.7 °F - 50.0 °F 91% 29.76 in 0.2 mi Calm Calm - N/A Fog Fog
5:13 AM 52.7 °F - 50.0 °F 91% 29.76 in 0.2 mi Calm Calm - N/A Fog Fog
5:34 AM 52.7 °F - 50.0 °F 91% 29.76 in 0.2 mi Calm Calm - N/A Fog Fog
5:54 AM 52.7 °F - 50.0 °F 91% 29.76 in 0.5 mi Calm Calm - N/A Fog Fog
6:14 AM 52.7 °F - 50.0 °F 91% 29.76 in 0.2 mi Calm Calm - N/A Fog Fog
6:34 AM 52.7 °F - 50.0 °F 91% 29.76 in 0.2 mi Calm Calm - N/A Fog Fog
6:54 AM 52.7 °F - 50.0 °F 91% 29.76 in 0.2 mi Calm Calm - N/A Fog Fog
7:14 AM 52.7 °F - 50.0 °F 91% 29.75 in 0.2 mi Calm Calm - N/A Fog Fog
7:34 AM 55.0 °F - 52.3 °F 91% 29.75 in 0.2 mi Calm Calm - N/A Fog Fog
7:54 AM 57.6 °F - 54.9 °F 91% 29.75 in 0.2 mi Calm Calm - N/A Fog Fog
8:13 AM 59.0 °F - 56.3 °F 91% 29.75 in 0.2 mi Calm Calm - N/A Fog Fog
8:34 AM 60.1 °F - 57.4 °F 91% 29.75 in 0.2 mi Calm Calm - N/A Fog Fog
8:54 AM 61.3 °F - 58.6 °F 91% 29.74 in 0.5 mi Calm Calm - N/A Fog Fog
9:13 AM 62.8 °F - 60.1 °F 91% 29.74 in 4.0 mi Calm Calm - N/A   Overcast
9:34 AM 63.0 °F - 60.3 °F 91% 29.74 in 10.0 mi Calm Calm - N/A   Scattered Clouds
9:53 AM 64.4 °F - 61.7 °F 91% 29.74 in 10.0 mi Calm Calm - N/A   Clear
10:14 AM 67.1 °F - 64.6 °F 92% 29.73 in 7.0 mi WNW 3.5 mph - N/A   Clear
10:34 AM 72.9 °F - 66.4 °F 80% 29.73 in 10.0 mi SW 3.5 mph - N/A   Clear
10:53 AM 74.8 °F - 67.3 °F 77% 29.73 in 10.0 mi SW 3.5 mph - N/A   Clear
11:14 AM 75.4 °F - 66.2 °F 73% 29.73 in 10.0 mi South 6.9 mph - N/A   Clear
11:34 AM 77.9 °F - 67.6 °F 71% 29.73 in 10.0 mi SSW 4.6 mph - N/A   Clear
11:54 AM 77.9 °F - 66.7 °F 68% 29.72 in 10.0 mi SW 8.1 mph - N/A   Clear
12:14 PM 78.1 °F - 65.8 °F 66% 29.72 in 10.0 mi South 5.8 mph - N/A   Clear
12:34 PM 78.4 °F - 65.3 °F 64% 29.72 in 10.0 mi SSW 5.8 mph - N/A   Clear
12:54 PM 78.1 °F - 64.4 °F 63% 29.71 in 10.0 mi South 6.9 mph - N/A   Clear
1:14 PM 80.6 °F 82.5 °F 65.5 °F 60% 29.71 in 10.0 mi SSW 5.8 mph - N/A   Clear
1:34 PM 80.6 °F 82.4 °F 64.9 °F 59% 29.70 in 10.0 mi SSE 6.9 mph - N/A   Clear
1:54 PM 82.9 °F 84.0 °F 63.3 °F 51% 29.70 in 10.0 mi South 4.6 mph - N/A   Clear
2:14 PM 82.9 °F - 52.2 °F 34% 29.69 in 10.0 mi SSW 9.2 mph - N/A   Clear
2:34 PM 82.9 °F - 52.2 °F 34% 29.69 in 10.0 mi SW 9.2 mph - N/A   Clear
2:54 PM 82.9 °F - 51.4 °F 33% 29.69 in 10.0 mi South 9.2 mph - N/A   Clear
3:14 PM 82.9 °F - 50.9 °F 33% 29.68 in 10.0 mi South 9.2 mph - N/A   Clear
3:34 PM 82.9 °F - 50.2 °F 32% 29.68 in 10.0 mi South 6.9 mph - N/A   Clear
3:54 PM 82.9 °F - 50.9 °F 33% 29.67 in 10.0 mi SW 8.1 mph - N/A   Clear
4:14 PM 82.0 °F - 51.8 °F 35% 29.67 in 10.0 mi SSW 4.6 mph - N/A   Clear
4:34 PM 80.6 °F - 51.4 °F 36% 29.67 in 10.0 mi SSW 5.8 mph - N/A   Clear
4:53 PM 80.6 °F 80.3 °F 53.2 °F 39% 29.67 in 10.0 mi South 4.6 mph - N/A   Clear
5:14 PM 80.6 °F 80.3 °F 53.8 °F 39% 29.67 in 10.0 mi South 3.5 mph - N/A   Clear
5:33 PM 77.9 °F - 57.7 °F 50% 29.67 in 10.0 mi Calm Calm - N/A   Clear
5:54 PM 77.9 °F - 62.1 °F 58% 29.67 in 10.0 mi Calm Calm - N/A   Clear
6:14 PM 77.9 °F - 71.4 °F 80% 29.68 in 10.0 mi Calm Calm - N/A   Clear
6:33 PM 75.0 °F - 69.8 °F 84% 29.69 in 10.0 mi Calm Calm - N/A   Clear
6:54 PM 72.9 °F - 68.4 °F 86% 29.69 in 10.0 mi Calm Calm - N/A   Clear
7:14 PM 72.9 °F - 69.8 °F 90% 29.69 in 10.0 mi Calm Calm - N/A   Clear
7:33 PM 70.7 °F - 68.4 °F 92% 29.70 in 10.0 mi Calm Calm - N/A   Clear
7:54 PM 68.4 °F - 66.0 °F 92% 29.70 in 10.0 mi Calm Calm - N/A   Clear
8:14 PM 66.4 °F - 64.4 °F 93% 29.70 in 7.0 mi Calm Calm - N/A   Clear
8:33 PM 65.8 °F - 63.9 °F 93% 29.70 in 7.0 mi Calm Calm - N/A   Clear
8:54 PM 65.3 °F - 63.5 °F 94% 29.71 in 7.0 mi Calm Calm - N/A   Clear
9:14 PM 65.1 °F - 63.0 °F 93% 29.71 in 5.0 mi Calm Calm - N/A   Clear
9:33 PM 64.0 °F - 61.9 °F 93% 29.71 in 7.0 mi NE 3.5 mph - N/A   Clear
9:54 PM 63.9 °F - 61.7 °F 93% 29.71 in 4.0 mi Calm Calm - N/A   Clear
10:14 PM 64.8 °F - 62.4 °F 92% 29.71 in 7.0 mi NE 3.5 mph - N/A   Clear
10:33 PM 63.1 °F - 60.8 °F 92% 29.71 in 5.0 mi Calm Calm - N/A   Clear
10:54 PM 62.8 °F - 60.4 °F 92% 29.71 in 4.0 mi NE 3.5 mph - N/A   Clear
11:13 PM 62.8 °F - 60.4 °F 92% 29.71 in 4.0 mi Calm Calm - N/A   Clear
11:34 PM 60.1 °F - 57.7 °F 92% 29.71 in 1.2 mi Calm Calm - N/A   Mist
11:54 PM 60.8 °F - 58.3 °F 91% 29.71 in 2.5 mi Calm Calm - N/A   Clear